Regional Weather Roundup
Issued by NWS

Home | Current Version | Previous Version | Text Only | Print | Product List | Glossary On
Versions: 1 2 3 4 5 6 7 8 9 10 11 12 13 14 15 16 17 18 19 20 21 22 23 24 25 26 27 28 29 30 31 32 33 34 35 36 37 38 39 40 41 42 43 44 45 46 47 48 49 50
000
ASUS43 KTOP 161459
RWRKS

WEATHER ROUNDUP FOR KANSAS
NATIONAL WEATHER SERVICE GOODLAND KS
900 AM CST MON JAN 16 2017

NOTE:  "FAIR" INDICATES FEW OR NO CLOUDS BELOW 12,000 FEET WITH NO
SIGNIFICANT WEATHER AND/OR OBSTRUCTIONS TO VISIBILITY.

KSZ001>006-013>018-027>032-041>047-161600-
NORTHWEST KANSAS

CITY           SKY/WX    TMP DP  RH WIND       PRES   REMARKS
GOODLAND       FRZ RAIN  32  31  96 N17       29.88R WCI  21
HAYS           CLOUDY    32  31  96 N14       29.85R WCI  22
HILL CITY      FRZ RAIN  33  32  96 N13       29.88F WCI  24
RUSSELL        CLOUDY    32  31  96 N15       29.82S WCI  22
$$

KSZ061>065-074>080-084>089-161600-
SOUTHWEST KANSAS

CITY           SKY/WX    TMP DP  RH WIND       PRES   REMARKS
DODGE CITY     CLOUDY    31  31 100 N14       29.84R FOG     WCI  21
ELKHART          N/A     31  25  79 NW6         N/A
GARDEN CITY    LGT SNOW  31  30  96 N13       29.85R FOG     WCI  21
GREAT BEND     CLOUDY    32  31  96 N9        29.84R
LIBERAL        CLOUDY    32  27  80 MISG      29.88R
$$

KSZ066>073-081>083-090>101-161600-
SOUTHEAST KANSAS

CITY           SKY/WX    TMP DP  RH WIND       PRES   REMARKS
CHANUTE        LGT RAIN  53  51  93 S18G29    29.86R FOG
HUTCHINSON     CLOUDY    33  32  96 N8        29.80S FOG
MEDICINE LODGE   N/A     33  32  96 NW5       29.83R
NEWTON         CLOUDY    43  43 100 S14       29.79R
PARSONS        CLOUDY    51  49  92 SW12      29.89R
WICHITA INTL   FOG       39  39 100 S12       29.82R VSB 1/2 WCI  32
WICHITA JABRA  CLOUDY    40  40 100 S16       29.81R WCI  31
WICHITA MCCONL CLOUDY    39  39 100 S16       29.82R FOG     WCI  30
WINFIELD       CLOUDY    40  40 100 S14G23    29.87R WCI  32
$$

KSZ007>012-019>026-033>040-048>060-102>105-161600-
NORTHEAST KANSAS

CITY           SKY/WX    TMP DP  RH WIND       PRES   REMARKS
CONCORDIA      FRZ RAIN  32  32 100 NE9       29.86S
EMPORIA        CLOUDY    45  45 100 SE7       29.82R FOG
LAWRENCE       CLOUDY    36  36 100 E7        29.88S FOG
MANHATTAN      CLOUDY    35  33  92 NE10      29.85S FOG     WCI  27
OLATHE IND     FOG       41  41 100 E9        29.87S VSB 1/4
OLATHE EXE     FOG       38  38 100 E8        29.87S VSB 1/4
SALINA         CLOUDY    34  32  92 N7        29.83S FOG
TOPEKA BILLARD CLOUDY    37  35  92 E10       29.87R FOG     WCI  30
TOPEKA FORBES  CLOUDY    39  37  92 E9        29.84F FOG
$$




USA.gov is the U.S. government's official web portal to all federal, state and local government web resources and services.